TimeEST,TemperatureF,Dew PointF,Humidity,Sea Level PressureIn,VisibilityMPH,Wind Direction,Wind SpeedMPH,Gust SpeedMPH,PrecipitationIn,Events,Conditions,WindDirDegrees,DateUTC
12:58 AM,25.3,21.6,86,30.14,10.0,North,3.5,-,N/A,,Clear,350,2014-03-07 05:58:00
1:58 AM,24.1,20.7,87,30.12,10.0,Calm,Calm,-,N/A,,Clear,0,2014-03-07 06:58:00
2:58 AM,26.1,21.4,82,30.07,10.0,NNW,2.3,-,N/A,,Clear,340,2014-03-07 07:58:00
3:58 AM,23.5,20.3,87,30.06,10.0,NNE,3.5,-,N/A,,Clear,20,2014-03-07 08:58:00
4:58 AM,23.9,20.7,87,30.07,10.0,ENE,2.3,-,N/A,,Clear,60,2014-03-07 09:58:00
5:58 AM,21.6,18.1,87,30.09,10.0,NNW,2.3,-,N/A,,Clear,330,2014-03-07 10:58:00
6:58 AM,24.1,20.5,86,30.10,10.0,SE,2.3,-,N/A,,Clear,130,2014-03-07 11:58:00
7:58 AM,27.0,21.9,81,30.10,10.0,North,2.3,-,N/A,,Clear,10,2014-03-07 12:58:00
8:58 AM,33.4,24.1,69,30.12,10.0,Calm,Calm,-,N/A,,Clear,0,2014-03-07 13:58:00
9:55 AM,40.3,26.8,59,30.09,10.0,SSE,5.8,-,N/A,,Partly Cloudy,150,2014-03-07 14:55:00
9:58 AM,40.3,26.8,59,30.09,10.0,Variable,3.5,-,N/A,,Clear,0,2014-03-07 14:58:00
10:38 AM,44.6,28.4,53,30.04,0.2,SSE,8.1,-,N/A,,Haze,160,2014-03-07 15:38:00
10:48 AM,44.6,28.4,53,30.03,6.0,SSE,9.2,-,N/A,,Haze,160,2014-03-07 15:48:00
10:55 AM,45.1,27.9,51,30.05,10.0,SE,9.2,-,N/A,,Partly Cloudy,140,2014-03-07 15:55:00
10:58 AM,45.1,27.9,51,30.06,10.0,SSE,8.1,-,N/A,,Clear,160,2014-03-07 15:58:00
11:58 AM,47.8,26.8,44,30.06,10.0,Variable,2.3,-,N/A,,Clear,0,2014-03-07 16:58:00
12:58 PM,51.1,27.5,40,30.03,10.0,Variable,4.6,-,N/A,,Clear,0,2014-03-07 17:58:00
1:58 PM,54.7,27.7,35,30.01,10.0,SSE,3.5,-,N/A,,Clear,160,2014-03-07 18:58:00
2:58 PM,56.3,27.5,33,29.99,10.0,SW,5.8,-,N/A,,Clear,230,2014-03-07 19:58:00
3:58 PM,56.7,27.1,32,29.98,10.0,SW,5.8,-,N/A,,Clear,230,2014-03-07 20:58:00
4:58 PM,56.5,28.2,34,29.97,10.0,South,4.6,-,N/A,,Clear,190,2014-03-07 21:58:00
5:58 PM,53.8,29.5,39,29.98,10.0,SW,6.9,-,N/A,,Clear,220,2014-03-07 22:58:00
6:58 PM,46.0,27.5,48,29.98,10.0,WSW,4.6,-,N/A,,Clear,240,2014-03-07 23:58:00
7:58 PM,40.5,27.7,60,29.97,10.0,East,1.2,-,N/A,,Clear,90,2014-03-08 00:58:00
8:58 PM,38.1,27.1,65,29.98,10.0,Calm,Calm,-,N/A,,Clear,0,2014-03-08 01:58:00
9:58 PM,35.6,27.3,72,29.96,10.0,Calm,Calm,-,N/A,,Clear,0,2014-03-08 02:58:00
10:58 PM,32.2,25.7,77,29.96,10.0,Calm,Calm,-,N/A,,Clear,0,2014-03-08 03:58:00
11:58 PM,33.3,27.9,81,29.99,10.0,NNW,1.2,-,N/A,,Clear,340,2014-03-08 04:58:00